Weather History for KEST - May, 2013

Change the Weather History Date:

Wednesday, May 29, 2013

  Actual Average Record
Temperature  
Mean Temperature 67 °F 63 °F  
Max Temperature 75 °F 74 °F 90 °F (1969)
Min Temperature 58 °F 52 °F 34 °F (1952)
Degree Days  
Heating Degree Days 0 4  
Month to date heating degree days 284 230  
Since 1 July heating degree days 7856 7691  
Cooling Degree Days 2 2  
Month to date cooling degree days 31 29  
Year to date cooling degree days 31 31  
Growing Degree Days 16 (Base 50)    
Moisture  
Dew Point 61 °F    
Average Humidity 87    
Maximum Humidity 100    
Minimum Humidity 73    
Precipitation  
Precipitation 0.23 in 0.14 in 1.47 in (2008)
Month to date precipitation 5.86 3.53  
Sea Level Pressure  
Sea Level Pressure 29.70 in    
Wind  
Wind Speed 14 mph (SE)    
Max Wind Speed 26 mph    
Max Gust Speed 33 mph    
Visibility 6 miles    
Events Fog , Rain , Thunderstorm    
T = Trace of Precipitation, MM = Missing Value Source: NWS Daily Summary

Daily Weather History Graph

Daily Weather History Graph

Search for Another Location

Airport or City:

Trip Planner

Search our weather history database for the weather conditions in past years. The results will help you decide how hot, cold, wet, or windy it might be!

Date:

Astronomy

May. 29, 2013 Rise Set
Actual Time 5:42 AM CDT 8:50 PM CDT
Civil Twilight 5:08 AM CDT 9:25 PM CDT
Nautical Twilight 4:23 AM CDT 10:09 PM CDT
Astronomical Twilight 3:30 AM CDT 11:03 PM CDT
Moon 12:09 AM CDT (5/29) 10:47 AM CDT (5/29)
Length of Visible Light 16h 17m
Length of Day
15h 07m
Waning Gibbous, 73% of the Moon is Illuminated
May 29
Waning Gibbous
May 31
Last Quarter
Jun 8
New
Jun 16
First Quarter
Jun 23
Full

Hourly Weather History & Observations

Time (CDT) Temp. Dew Point Humidity Pressure Visibility Wind Dir Wind Speed Gust Speed Precip Events Conditions
12:43 AM 57.2 °F 55.4 °F 94% 29.78 in 4.0 mi ESE 5.8 mph - N/A   Mostly Cloudy
12:52 AM 57.0 °F 55.9 °F 96% 29.77 in 4.0 mi ESE 5.8 mph - N/A   Mostly Cloudy
1:52 AM 59.0 °F 57.0 °F 93% 29.75 in 4.0 mi East 5.8 mph - N/A   Overcast
2:50 AM 59.0 °F 57.2 °F 94% 29.76 in 3.0 mi East 6.9 mph - N/A   Overcast
2:52 AM 59.0 °F 57.0 °F 93% 29.75 in 3.0 mi East 5.8 mph - N/A   Overcast
3:52 AM 60.1 °F 57.9 °F 93% 29.75 in 4.0 mi East 6.9 mph - N/A   Overcast
4:52 AM 59.0 °F 57.9 °F 96% 29.75 in 4.0 mi East 4.6 mph - N/A   Overcast
5:08 AM 59.0 °F 57.2 °F 94% 29.75 in 3.0 mi East 8.1 mph - N/A   Overcast
5:19 AM 59.0 °F 57.2 °F 94% 29.75 in 2.0 mi East 9.2 mph - N/A   Overcast
5:27 AM 59.0 °F 57.2 °F 94% 29.76 in 1.0 mi East 9.2 mph - N/A   Overcast
5:35 AM 57.2 °F 57.2 °F 100% 29.77 in 0.5 mi East 8.1 mph - N/A Fog Fog
5:52 AM 57.9 °F 57.0 °F 97% 29.76 in 0.5 mi East 9.2 mph - N/A Fog Fog
6:52 AM 60.1 °F 59.0 °F 96% 29.75 in 0.2 mi ESE 11.5 mph - N/A Fog Fog
7:25 AM 60.8 °F 60.8 °F 100% 29.75 in 1.2 mi ESE 9.2 mph - N/A   Overcast
7:36 AM 62.6 °F 60.8 °F 94% 29.75 in 2.0 mi SE 9.2 mph - N/A   Overcast
7:52 AM 63.0 °F 62.1 °F 97% 29.74 in 3.0 mi SE 9.2 mph - N/A   Mostly Cloudy
8:04 AM 64.4 °F 62.6 °F 94% 29.75 in 4.0 mi SSE 11.5 mph - N/A   Mostly Cloudy
8:52 AM 68.0 °F 63.0 °F 84% 29.73 in 8.0 mi SSE 11.5 mph - N/A   Scattered Clouds
9:52 AM 69.1 °F 63.0 °F 81% 29.71 in 10.0 mi SSE 13.8 mph - N/A   Overcast
10:36 AM 71.6 °F 64.4 °F 78% 29.71 in 10.0 mi South 13.8 mph - N/A   Mostly Cloudy
10:52 AM 72.0 °F 64.9 °F 78% 29.70 in 10.0 mi South 16.1 mph - N/A   Overcast
11:52 AM 73.0 °F 66.0 °F 79% 29.69 in 10.0 mi South 17.3 mph - N/A   Overcast
12:52 PM 71.1 °F 64.9 °F 81% 29.71 in 8.0 mi South 16.1 mph 25.3 mph 0.00 in Rain Light Rain
1:10 PM 71.6 °F 66.2 °F 83% 29.70 in 10.0 mi South 15.0 mph - 0.00 in   Overcast
1:52 PM 73.0 °F 66.0 °F 79% 29.67 in 10.0 mi SSE 6.9 mph 16.1 mph 0.00 in   Clear
2:52 PM 75.0 °F 66.9 °F 76% 29.67 in 10.0 mi South 25.3 mph 33.4 mph 0.00 in   Partly Cloudy
3:52 PM 73.9 °F 64.9 °F 73% 29.64 in 10.0 mi South 16.1 mph - N/A   Clear
4:52 PM 73.9 °F 66.0 °F 76% 29.63 in 10.0 mi SSE 13.8 mph - N/A   Mostly Cloudy
5:52 PM 73.0 °F 64.0 °F 73% 29.62 in 10.0 mi South 19.6 mph - N/A   Clear
6:39 PM 71.6 °F 64.4 °F 78% 29.62 in 10.0 mi SSE 17.3 mph - N/A   Mostly Cloudy
6:52 PM 71.1 °F 64.0 °F 78% 29.60 in 10.0 mi SSE 15.0 mph - N/A   Overcast
7:20 PM 69.8 °F 62.6 °F 78% 29.62 in 10.0 mi SSE 18.4 mph 25.3 mph N/A   Mostly Cloudy
7:52 PM 68.0 °F 63.0 °F 84% 29.60 in 10.0 mi SE 12.7 mph - N/A   Partly Cloudy
8:52 PM 66.9 °F 61.0 °F 81% 29.61 in 10.0 mi SSE 12.7 mph - N/A   Clear
9:40 PM 66.2 °F 60.8 °F 83% 29.64 in 10.0 mi SE 10.4 mph - 0.00 in Rain , Thunderstorm Light Rain
9:52 PM 66.0 °F 61.0 °F 84% 29.64 in 6.0 mi SSE 11.5 mph - 0.04 in Rain , Thunderstorm Light Thunderstorms and Rain
10:46 PM 66.2 °F 62.6 °F 88% 29.65 in 7.0 mi SSE 19.6 mph 33.4 mph 0.06 in Rain , Thunderstorm Light Rain
10:47 PM 66.2 °F 62.6 °F 88% 29.65 in 7.0 mi SSE 19.6 mph 33.4 mph 0.06 in Rain , Thunderstorm Light Rain
10:52 PM 66.0 °F 63.0 °F 90% 29.63 in 6.0 mi SSE 18.4 mph 26.5 mph 0.08 in Rain , Thunderstorm Rain
11:25 PM 66.2 °F 62.6 °F 88% 29.64 in 8.0 mi SSE 18.4 mph - 0.07 in Rain Light Rain
11:52 PM 64.9 °F 62.1 °F 90% 29.62 in 9.0 mi SSE 20.7 mph 27.6 mph 0.10 in Rain Light Rain